タットル-ジャコビニ-クレサーク彗星

41P/Tuttle-Giacobini-Kresak (2011)

English version
Home page
Updated on July 22, 2011

---------------------------------------------------------------------

・ プロフィール

・ 軌道要素

The following orbital elements are taken from MPC 62882:

Epoch 2011 Nov. 15.0 TT = JDT 2455880.5
T 2011 Nov. 12.1506 TT                                  MPC
q   1.049465             (2000.0)            P               Q
n   0.1816326      Peri.   62.1766      -0.9116718      +0.3983768
a   3.087973       Node   141.0634      -0.4102560      -0.8684935
e   0.660144       Incl.    9.2250      -0.0233378      -0.2949829
P   5.43
From 438 observations 1995-2006, mean residual 0".7.  Nongravitational
     parameters A1 = +1.38, A2 = +0.3318.

・ 星図

・ 光度変化

        m1 = 13.5 + 5 logΔ + 18.0 log r  [   ,-65]  (              〜2011年 9月 8日)
        m1 =  8.5 + 5 logΔ + 55   log r  [-65,  0]  (2011年 9月 8日〜2011年11月12日)
        m1 =  9.0 + 5 logΔ + 30   log r  [  0,   ]  (2011年11月12日〜              )

---------------------------------------------------------------------

軌道要素はMPCのEphemerides and Orbital Elementsに掲載されたものです。
星図はステラナビゲータ Ver.8 (アストロアーツ) で作成したものです。
光度グラフはComet for Windowsで作成したものです。

---------------------------------------------------------------------

Copyright(C) Seiichi Yoshida (comet@aerith.net). All rights reserved.